Weather History for KBTL - October, 2012

Change the Weather History Date:

Thursday, October 4, 2012

  Actual Average Record
Temperature  
Mean Temperature 64 °F 54 °F  
Max Temperature 76 °F 66 °F 84 °F (2005)
Min Temperature 51 °F 43 °F 32 °F (1996)
Degree Days  
Heating Degree Days 1 11  
Month to date heating degree days 23 43  
Since 1 July heating degree days 186 240  
Cooling Degree Days 0 0  
Month to date cooling degree days 0 2  
Year to date cooling degree days 1005 575  
Growing Degree Days 14 (Base 50)    
Moisture  
Dew Point 53 °F    
Average Humidity 67    
Maximum Humidity 96    
Minimum Humidity 38    
Precipitation  
Precipitation 0.18 in 0.11 in 1.32 in (2000)
Month to date precipitation 0.30 0.44  
Year to date precipitation 17.85 25.63  
Sea Level Pressure  
Sea Level Pressure 30.05 in    
Wind  
Wind Speed 11 mph (SW)    
Max Wind Speed 25 mph    
Max Gust Speed 30 mph    
Visibility 9 miles    
Events Rain    
T = Trace of Precipitation, MM = Missing Value Source: NWS Daily Summary

Daily Weather History Graph

Daily Weather History Graph

Search for Another Location

Airport or City:

Trip Planner

Search our weather history database for the weather conditions in past years. The results will help you decide how hot, cold, wet, or windy it might be!

Date:

Astronomy

Oct. 04, 2012 Rise Set
Actual Time 7:41 AM EDT 7:16 PM EDT
Civil Twilight 7:13 AM EDT 7:44 PM EDT
Nautical Twilight 6:41 AM EDT 8:16 PM EDT
Astronomical Twilight 6:08 AM EDT 8:49 PM EDT
Moon 9:46 PM EDT 12:03 PM EDT
Length of Visible Light 12h 30m
Length of Day
11h 34m
Waning Gibbous, 82% of the Moon is Illuminated
Oct 4
Waning Gibbous
Oct 8
Last Quarter
Oct 15
New
Oct 21
First Quarter
Oct 29
Full

Hourly Weather History & Observations

Time (EDT) Temp. Dew Point Humidity Pressure Visibility Wind Dir Wind Speed Gust Speed Precip Events Conditions
12:53 AM 57.9 °F 55.0 °F 90% 30.06 in 8.0 mi SSW 6.9 mph - N/A   Overcast
1:53 AM 57.0 °F 54.0 °F 89% 30.06 in 9.0 mi SSW 9.2 mph - N/A   Overcast
2:53 AM 55.0 °F 52.0 °F 89% 30.06 in 9.0 mi South 5.8 mph - N/A   Clear
3:53 AM 53.1 °F 51.1 °F 93% 30.05 in 5.0 mi Calm Calm - N/A   Clear
4:53 AM 53.1 °F 51.1 °F 93% 30.06 in 7.0 mi SW 4.6 mph - N/A   Scattered Clouds
5:53 AM 52.0 °F 50.0 °F 93% 30.07 in 7.0 mi SW 6.9 mph - N/A   Clear
6:53 AM 54.0 °F 51.1 °F 90% 30.08 in 7.0 mi SSW 6.9 mph - N/A   Clear
7:53 AM 54.0 °F 51.1 °F 90% 30.08 in 5.0 mi SSW 8.1 mph - N/A   Mostly Cloudy
8:53 AM 55.0 °F 52.0 °F 89% 30.07 in 6.0 mi SW 8.1 mph - N/A   Mostly Cloudy
9:53 AM 60.1 °F 54.0 °F 80% 30.08 in 10.0 mi SSW 9.2 mph - N/A   Partly Cloudy
10:53 AM 64.0 °F 53.1 °F 67% 30.09 in 10.0 mi SW 13.8 mph - N/A   Clear
11:53 AM 66.9 °F 53.1 °F 61% 30.08 in 10.0 mi SW 17.3 mph 23.0 mph N/A   Partly Cloudy
12:53 PM 70.0 °F 53.1 °F 55% 30.06 in 10.0 mi SSW 15.0 mph 23.0 mph N/A   Clear
1:53 PM 73.0 °F 53.1 °F 49% 30.06 in 10.0 mi WSW 15.0 mph - N/A   Clear
2:53 PM 73.0 °F 52.0 °F 48% 30.04 in 10.0 mi WSW 18.4 mph 26.5 mph N/A   Clear
3:53 PM 75.9 °F 50.0 °F 40% 30.02 in 10.0 mi SW 18.4 mph 24.2 mph N/A   Partly Cloudy
4:53 PM 75.0 °F 48.9 °F 40% 30.02 in 10.0 mi SSW 19.6 mph 24.2 mph N/A   Clear
5:53 PM 75.2 °F 50.0 °F 41% 30.00 in 10.0 mi SSW 16.1 mph 20.7 mph N/A   Overcast
6:53 PM 73.0 °F 51.1 °F 46% 29.99 in 10.0 mi SSW 10.4 mph - N/A   Overcast
7:53 PM 72.0 °F 51.1 °F 48% 29.99 in 10.0 mi SSW 10.4 mph - N/A   Overcast
8:53 PM 71.6 °F 53.6 °F 53% 30.02 in 10.0 mi WNW 12.7 mph - N/A   Overcast
9:28 PM 60.8 °F 57.2 °F 88% 30.05 in 2.5 mi West 15.0 mph 27.6 mph 0.12 in Rain Heavy Rain
9:38 PM 60.8 °F 57.2 °F 88% 30.04 in 3.0 mi WSW 10.4 mph - 0.17 in Rain Rain
9:53 PM 60.1 °F 57.0 °F 90% 30.05 in 10.0 mi WSW 11.5 mph - 0.17 in   Overcast
10:08 PM 60.8 °F 57.2 °F 88% 30.04 in 9.0 mi WSW 9.2 mph - 0.01 in Rain Light Rain
10:20 PM 60.8 °F 57.2 °F 88% 30.05 in 10.0 mi West 11.5 mph - 0.01 in   Overcast
10:36 PM 60.8 °F 57.2 °F 88% 30.05 in 10.0 mi West 11.5 mph - 0.01 in   Overcast
10:53 PM 59.0 °F 55.9 °F 90% 30.04 in 10.0 mi WSW 10.4 mph - 0.01 in Rain Light Rain
11:00 PM 59.0 °F 55.4 °F 88% 30.04 in 10.0 mi WSW 10.4 mph - 0.00 in Rain Light Rain
11:09 PM 59.0 °F 55.4 °F 88% 30.04 in 10.0 mi WSW 11.5 mph - 0.00 in Rain Light Rain
11:17 PM 59.0 °F 55.4 °F 88% 30.04 in 10.0 mi West 9.2 mph - 0.00 in Rain Light Rain
11:53 PM 57.9 °F 55.0 °F 90% 30.05 in 10.0 mi West 13.8 mph - 0.00 in Rain Light Rain